Regional Weather Roundup
Issued by NWS Upton, NY

Current Version | Previous Version | Text Only | Print | Product List | Glossary On
Versions: 1 2 3 4 5 6 7 8 9 10 11 12 13 14 15 16 17 18 19 20 21 22 23 24 25 26 27 28 29 30 31 32 33 34 35 36 37 38 39 40 41 42 43 44 45 46 47 48 49 50
000
ASUS41 KOKX 300205
RWROKX

REGIONAL WEATHER ROUNDUP
NATIONAL WEATHER SERVICE NEW YORK NY
900 PM EST THU JAN 29 2015

NOTE: "FAIR" INDICATES FEW OR NO CLOUDS BELOW 12,000 FEET WITH NO
SIGNIFICANT WEATHER AND/OR OBSTRUCTIONS TO VISIBILITY.

NYZ071-072-176-178-NJZ106-104-300300-
NEW YORK CITY METRO AREA


CITY           SKY/WX    TMP DP  RH WIND       PRES   REMARKS
CENTRAL PARK   CLOUDY    35  24  64 VRB3      30.07F
LAGUARDIA APRT CLOUDY    35  26  69 S8        30.06F WCI  29
KENNEDY INTL   CLOUDY    37  29  72 SW14      30.08F WCI  28
NEWARK/LIBERTY FLURRIES  32  21  64 SW6       30.07F WCI  26
BRNX BOT. GARD   N/A    N/A N/A N/A E5        30.08F
TETERBORO      CLOUDY    33  22  63 VRB3      30.05F
$$

NYZ177-179-078>081-300300-
LONG ISLAND NEW YORK

CITY           SKY/WX    TMP DP  RH WIND       PRES   REMARKS
FARMINGDALE    CLOUDY    31  25  78 CALM      30.07F
ISLIP          CLOUDY    31  26  82 CALM      30.06F
SHIRLEY        CLOUDY    30  24  78 CALM      30.09F
WESTHAMPTON    CLOUDY    36  27  69 S6        30.09F WCI  31
MONTAUK POINT    N/A     36  28  73 VRB6      30.10F WCI  31
$$

NYZ052-065-067-300300-
HUDSON VALLEY

CITY           SKY/WX    TMP DP  RH WIND       PRES   REMARKS
WHITE PLAINS   CLOUDY    30  23  75 S5        30.04F WCI  25
NEWBURGH       CLOUDY    28  23  80 S12       30.05F WCI  18
MONTGOMERY     CLOUDY    29  18  63 CALM      30.02F
POUGHKEEPSIE   CLOUDY    31  20  63 CALM      30.06S
ALBANY         CLOUDY    30   8  39 S12       29.99F WCI  20
$$

NJZ001-105-106-008-010-013-015-019>022-104-300300-
NEW JERSEY

CITY           SKY/WX    TMP DP  RH WIND       PRES   REMARKS
NEWARK/LIBERTY FLURRIES  32  21  64 SW6       30.07F WCI  26
TETERBORO      CLOUDY    33  22  63 VRB3      30.05F
CALDWELL       CLOUDY    31  19  61 VRB5      30.07F WCI  26
MORRISTOWN     CLOUDY    30  18  59 SW6       30.07F WCI  24
SOMERVILLE     CLOUDY    31  20  63 SE3       30.04F
SUSSEX         CLOUDY    27  20  75 CALM      30.02F
ANDOVER          N/A     27  20  75 S5        30.01F WCI  22
TRENTON        CLOUDY    31  19  61 S6        30.05F WCI  25
MILLVILLE      CLOUDY    33  23  66 S6        30.05F WCI  28
ATLANTIC CITY  CLOUDY    35  24  64 SW6       30.08F WCI  30
WRIGHTSTOWN    CLOUDY    31  24  76 S5        30.04F WCI  26
TOMS RIVER     CLOUDY    34  27  75 CALM      30.07F
BELMAR         CLOUDY    32  21  64 SW3       30.06F
$$

PAZ047>061-062-071-300300-
EASTERN PENNSYLVANIA

CITY           SKY/WX    TMP DP  RH WIND       PRES   REMARKS
PHILADELPHIA   CLOUDY    33  23  66 S6        30.05F WCI  28
ALLENTOWN      LGT SNOW  28  22  78 S5        30.02F WCI  23
SCRANTON       LGT SNOW  26  19  74 S6        29.94F WCI  19
$$

CTZ002-004>006-009-010-012-RIZ004-006-007-MAZ004-011-015-300300-
SOUTHERN NEW ENGLAND
 IN CT

CITY           SKY/WX    TMP DP  RH WIND       PRES   REMARKS
BRADLEY INTL   CLOUDY    29  21  72 S6        30.07F WCI  23
HARTFORD       CLOUDY    29  22  75 S5        30.09F WCI  24
DANBURY        CLOUDY    28  19  69 S3        30.06F
WTRBRY/OXFORD  CLOUDY    28  18  64 S6        30.04F WCI  22
BRIDGEPORT     CLOUDY    32  27  81 SE6       30.08F WCI  26
MERIDEN        CLOUDY    29  22  75 CALM      30.08F
NEW HAVEN      CLOUDY    32  26  78 SE5       30.08F WCI  27
CHESTER        CLOUDY    32  27  80 SE3       30.07F
GROTON         CLOUDY    33  28  81 S9        30.10F WCI  25
WILLIMANTIC    CLOUDY    29  20  69 CALM      30.09F

 IN RI

CITY           SKY/WX    TMP DP  RH WIND       PRES   REMARKS
PROVIDENCE     CLOUDY    26  18  71 CALM      30.12F
BLOCK ISLAND   CLOUDY    34  25  69 S8        30.10F WCI  27
WESTERLY       CLOUDY    33  27  78 S8        30.12F WCI  26

 IN MA

CITY           SKY/WX    TMP DP  RH WIND       PRES   REMARKS
BOSTON         CLOUDY    28  19  69 S7        30.12F WCI  21
WORCESTER      CLOUDY    25  15  66 S10       30.04F WCI  15
WESTFIELD      CLOUDY    29  17  61 S6        30.07F WCI  23
PROVINCETOWN   PTCLDY    21  16  79 S3        30.13F
NANTUCKET      MOCLDY    28  24  85 W3        30.13F
$$

ANZ330-335-338-340-345-350-353-355-300300-
COASTAL MARINE OBSERVATIONS


STATION/POSITION TIME  SKY/WX   TEMP    WIND        PRES    VSBY  WAVE
                                AIR SEA DIR/SP/G                  HT/PER
                 (UTC)          (F)     (DEG/KT/KT) (MB)    (MI)  (FT/S)
NY HARB ENTRANCE 0200            38 39  200/ 16/ 21 1017.8          3/ 4
4S FIRE IS       NOT AVBL
20S FIRE ISLAND  0100               42              1019.4          2/10
23SW MTP         0200                                 N/A           2/10
HUDSON CANYON    NOT AVBL
EXECUTION ROCKS  0200            32 33   90/  4/  4   N/A
WESTERN LI SOUND 0200            32     100/  4/  6   N/A           0
CENTRAL LI SOUND 0100            33 35  110/  6/  8   N/A           0
EASTERN LI SOUND NOT AVBL
ROBBINS REEF     0100            33     210/  7/  9 1017.5
$$


>>>>>>>>>>>>>>>>>>>>>>>>>>>> KEY <<<<<<<<<<<<<<<<<<<<<<<<<<<
>                                                          <
>     SKY/WX - SKY CONDITION/PRESENT WEATHER               <
>     TMP    - TEMPERATURE IN FAHRENHEIT                   <
>     DP     - DEWPOINT IN FAHRENHEIT                      <
>     RH     - RELATIVE HUMIDITY IN PERCENT                <
>     WIND   - DIRECTION AND SPEED IN MPH                  <
>     PRES   - MEAN SEA LEVEL PRESSURE IN INCHES OF HG     <
>     WCI    - WIND CHILL INDEX                            <
>     VSB    - VISIBILITY IN MILES                         <
>     HX     - HEAT INDEX                                  <
>     TC     - TEMPERATURE IN CELSIUS                      <
>     VRB    - VARIABLE WIND DIRECTION                     <
>                                                          <
>>>>>>>>>>>>>>>>>>>>>>>>>>>> KEY <<<<<<<<<<<<<<<<<<<<<<<<<<<




USA.gov is the U.S. government's official web portal to all federal, state and local government web resources and services.